Location: Bremen
(53.0793°N, 8.8017°E)
Time: 23:43:09
(UTC+02:00)

Altair - Pass Details

Date: 19 April 2024
Orbit: 1501 x 1682 km, 47.2° (Epoch: 19 May)

Event Time Altitude Azimuth Distance (km) Brightness Sun altitude
Rises 19:52:34 0° 210° (SSW) 4,915 10.4 4.9°
Reaches altitude 10° 19:56:09 10° 201° (SSW) 3,917 9.8 4.4°
Maximum altitude 20:04:40 33° 143° (SE) 2,501 8.3 3.2°
Drops below altitude 10° 20:12:58 10° 84° (E) 3,824 9.0 2.0°
Sets 20:16:24 0° 75° (ENE) 4,785 9.6 1.5°
